times,LAT,LON,ELV,ROW,COL,GSP,SP,TT,TRH,PM1,PM2.5,PM4,PM10,PRHI,O3,PMF,O3F,GPF,SPF
2021-09-28 16:47:00,40.76978,-111.85029,163.8,64,70,,1.1,22.9,23.7,,5.0,,,27.0,,0,0,0,0
2021-09-28 16:48:00,40.76626,-111.84769,1475.1,63,70,,0.2,22.9,23.6,,5.0,,,27.0,,0,0,0,1
2021-09-28 16:48:00,40.76975,-111.85051,164.1,64,70,,0.6,22.9,23.7,,5.0,,,27.0,,0,0,0,1
2021-09-28 16:49:00,40.76616,-111.84761,1475.8,63,70,,0.3,23.0,23.5,,5.0,,,27.0,33.2,0,0,0,1
2021-09-28 16:50:00,40.76618,-111.84762,1475.7,63,70,,0.2,23.0,23.5,,5.0,,,27.0,33.3,0,0,0,1
2021-09-28 16:51:00,40.7665,-111.84796,1476.1,63,70,,1.0,23.0,23.6,,5.0,,,27.0,32.8,0,0,0,0
2021-09-28 16:52:00,40.76635,-111.84788,1476.5,63,70,,0.7,23.1,23.6,,5.0,,,27.0,32.4,0,0,0,1
2021-09-28 16:53:00,40.76654,-111.84764,1474.8,63,70,,0.4,23.1,23.5,,5.0,,,27.0,32.2,0,0,0,1
2021-09-28 16:54:00,40.76648,-111.84765,1474.6,63,70,,0.8,23.1,23.5,,5.0,,,26.0,32.4,0,0,0,1
2021-09-28 16:55:00,40.76633,-111.84757,1473.6,63,70,,0.2,23.1,23.4,,4.5,,,26.0,33.9,0,0,0,1
2021-09-28 16:56:00,40.76611,-111.84731,1473.7,63,71,,2.8,23.2,23.4,,4.5,,,26.0,30.9,0,0,0,0
2021-09-28 16:56:00,40.76631,-111.84761,1473.7,63,70,,0.3,23.1,23.4,,4.0,,,26.0,33.5,0,0,0,1
2021-09-28 16:57:00,40.76572,-111.84722,1473.9,63,71,,0.6,23.2,23.4,,5.0,,,26.0,33.0,0,0,0,1
2021-09-28 16:58:00,40.76581,-111.84725,1474.5,63,71,,0.3,23.3,23.5,,4.5,,,26.0,32.6,0,0,0,1
2021-09-28 16:59:00,40.76632,-111.84766,1476.1,63,70,,0.7,23.4,23.9,,4.5,,,26.0,32.1,0,0,0,1
2021-09-28 17:00:00,40.76613,-111.84758,1477.0,63,70,,1.5,23.4,24.1,,5.0,,,26.0,32.8,0,0,0,0
2021-09-28 17:00:00,40.76615,-111.84747,1477.3,63,71,,0.6,23.4,24.2,,4.0,,,26.0,31.3,0,0,0,1
2021-09-28 17:01:00,40.76631,-111.84766,1477.1,63,70,,0.4,23.4,24.4,,5.0,,,26.0,32.3,0,0,0,1
2021-09-28 17:02:00,40.76643,-111.84778,1478.6,63,70,,0.7,23.4,24.5,,5.0,,,26.0,31.9,0,0,0,1
2021-09-28 17:03:00,40.76644,-111.8486,1480.2,63,70,,1.4,23.4,24.6,,5.0,,,26.0,32.5,0,0,0,0
2021-09-28 17:04:00,40.76622,-111.84775,1480.6,63,70,,0.6,23.4,24.7,,5.0,,,26.0,31.6,0,0,0,1
2021-09-28 17:05:00,40.7663,-111.84765,1482.7,63,70,,0.2,23.4,24.8,,5.0,,,26.0,31.8,0,0,0,1
2021-09-28 17:06:00,40.76631,-111.84757,1482.7,63,70,,0.2,23.4,24.9,,4.0,,,26.0,32.1,0,0,0,1
2021-09-28 17:07:00,40.76662,-111.84785,1481.9,63,70,,1.1,23.5,25.0,,5.0,,,26.0,30.9,0,0,0,0
2021-09-28 17:08:00,40.76626,-111.84764,1478.1,63,70,,0.4,23.4,25.1,,4.5,,,26.0,32.1,0,0,0,1
2021-09-28 17:09:00,40.76657,-111.84798,1475.3,63,70,,1.1,23.5,25.2,,4.0,,,26.0,31.0,0,0,0,0
2021-09-28 17:10:00,40.7668,-111.84785,1475.0,63,70,,0.6,23.5,25.1,,4.0,,,26.0,31.6,0,0,0,1
2021-09-28 17:10:00,40.76645,-111.84733,1472.7,63,71,,1.9,23.6,25.1,,5.0,,,26.0,30.6,0,0,0,0
2021-09-28 17:11:00,40.76634,-111.84739,1470.2,63,71,,1.1,23.6,25.2,,4.0,,,26.0,31.6,0,0,0,0
2021-09-28 17:11:00,40.76622,-111.84754,1471.7,63,70,,1.0,23.6,25.2,,4.5,,,26.0,32.4,0,0,0,0
2021-09-28 17:12:00,40.76626,-111.84755,1469.9,63,70,,1.2,23.6,25.0,,,,,,31.7,0,0,0,0
2021-09-28 17:12:00,40.76633,-111.84739,1469.9,63,71,,0.2,23.6,25.1,,4.0,,,26.0,30.9,0,0,0,1
2021-09-28 17:13:00,40.76623,-111.84759,1469.8,63,70,,0.7,23.6,24.9,,4.0,,,26.0,31.9,0,0,0,1
2021-09-28 17:14:00,40.76638,-111.84785,1470.3,63,70,,0.4,23.6,24.9,,5.0,,,26.0,31.0,0,0,0,1
2021-09-28 17:15:00,40.76626,-111.84777,1470.2,63,70,,0.3,23.6,24.7,,5.0,,,26.0,32.2,0,0,0,1
2021-09-28 17:16:00,40.76624,-111.84774,1471.5,63,70,,0.2,23.6,24.2,,5.0,,,26.0,33.5,0,0,0,1
2021-09-28 17:17:00,40.76626,-111.84767,1471.7,63,70,,0.3,23.6,24.0,,5.0,,,26.0,32.4,0,0,0,1
2021-09-28 17:18:00,40.7662,-111.84741,1471.7,63,71,,0.5,23.7,23.8,,5.0,,,26.0,32.2,0,0,0,1
2021-09-28 17:18:00,40.76621,-111.84752,1471.7,63,70,,0.3,23.6,23.9,,5.0,,,26.0,32.0,0,0,0,1
2021-09-28 17:19:00,40.76615,-111.84722,,63,71,,0.3,23.7,23.7,,5.0,,,26.0,31.7,0,0,0,1
2021-09-28 17:20:00,40.76687,-111.84794,1475.2,63,70,,3.8,23.7,23.6,,5.0,,,25.0,32.0,0,0,0,0
2021-09-28 17:21:00,40.76642,-111.84773,1475.8,63,70,,1.5,23.7,23.4,,5.0,,,25.0,32.2,0,0,0,0
2021-09-28 17:22:00,40.76591,-111.84761,1476.8,63,70,,0.9,23.7,23.4,,5.0,,,25.0,31.6,0,0,0,0
2021-09-28 17:23:00,40.76634,-111.84763,1478.4,63,70,,0.6,23.7,23.3,,5.0,,,25.0,32.2,0,0,0,1
2021-09-28 17:24:00,40.76669,-111.84797,1479.1,63,70,,0.7,23.7,23.2,,5.0,,,25.0,32.5,0,0,0,1
2021-09-28 17:25:00,40.76669,-111.84805,1478.8,63,70,,0.7,23.8,23.1,,5.0,,,25.0,32.8,0,0,0,1
2021-09-28 17:26:00,40.76644,-111.84761,1476.2,63,70,,1.1,23.8,23.0,,5.0,,,25.0,32.6,0,0,0,0
2021-09-28 17:27:00,40.76636,-111.84755,1477.2,63,70,,1.6,23.8,22.8,,5.0,,,24.5,33.0,0,0,0,0
2021-09-28 17:27:00,40.76625,-111.84742,1476.9,63,71,,0.7,23.8,22.8,,5.0,,,24.0,33.0,0,0,0,1
2021-09-28 17:28:00,40.76646,-111.84764,1478.8,63,70,,0.2,23.8,22.9,,5.0,,,24.0,31.6,0,0,0,1
2021-09-28 17:29:00,40.76639,-111.84762,1478.9,63,70,,0.5,23.8,22.9,,5.0,,,24.0,32.0,0,0,0,1
2021-09-28 17:30:00,40.76633,-111.84758,1478.4,63,70,,0.2,23.8,22.9,,5.0,,,24.0,32.5,0,0,0,1
2021-09-28 17:31:00,40.76599,-111.84759,1478.6,63,70,,1.1,23.9,22.9,,5.0,,,24.0,30.7,0,0,0,0
2021-09-28 17:32:00,40.76633,-111.84785,1477.4,63,70,,0.9,23.9,23.0,,5.0,,,24.0,32.3,0,0,0,1
2021-09-28 17:33:00,40.76586,-111.8475,1476.3,63,71,,2.0,23.9,23.1,,5.0,,,24.0,29.8,0,0,0,0
2021-09-28 17:33:00,40.76622,-111.84769,1476.6,63,70,,0.7,23.9,23.1,,5.0,,,24.0,30.4,0,0,0,1
2021-09-28 17:34:00,40.76613,-111.84759,1475.4,63,70,,0.3,23.9,23.2,,5.0,,,24.0,30.2,0,0,0,1
2021-09-28 17:35:00,40.76685,-111.84789,1473.2,63,70,,1.8,24.0,23.0,,5.0,,,24.0,31.6,0,0,0,0
2021-09-28 17:36:00,40.76694,-111.84786,1472.8,63,70,,0.9,24.0,23.0,,5.0,,,24.0,31.2,0,0,0,1
2021-09-28 17:37:00,40.76646,-111.84782,1474.2,63,70,,0.3,24.0,23.0,,5.0,,,24.0,32.5,0,0,0,1
2021-09-28 17:38:00,40.76647,-111.84776,1474.3,63,70,,0.3,24.0,22.8,,5.0,,,24.0,31.2,0,0,0,1
2021-09-28 17:39:00,40.76665,-111.84775,1474.0,63,70,,0.3,24.0,22.4,,5.0,,,24.0,32.2,0,0,0,1
2021-09-28 17:40:00,40.76672,-111.8478,1471.0,63,70,,0.2,24.0,22.1,,5.0,,,24.0,32.8,0,0,0,1
2021-09-28 17:41:00,40.76675,-111.84777,1473.9,63,70,,0.4,24.0,22.1,,5.0,,,24.0,31.5,0,0,0,1
2021-09-28 17:42:00,40.76637,-111.84756,1474.0,63,70,,0.4,24.0,22.2,,5.0,,,23.0,31.5,0,0,0,1
2021-09-28 17:43:00,40.76632,-111.84757,1474.3,63,70,,0.3,24.0,22.4,,5.0,,,24.0,32.2,0,0,0,1
2021-09-28 17:44:00,40.76636,-111.84769,1474.3,63,70,,0.5,24.0,22.8,,5.0,,,24.0,32.2,0,0,0,1
2021-09-28 17:45:00,40.7663,-111.8476,1475.3,63,70,,0.7,24.0,22.9,,5.0,,,24.0,30.6,0,0,0,1
2021-09-28 17:46:00,40.76644,-111.84749,1475.9,63,71,,0.7,24.0,23.0,,5.0,,,24.0,32.0,0,0,0,1
2021-09-28 17:46:00,40.76634,-111.84754,1475.9,63,70,,0.3,24.0,23.0,,5.0,,,24.0,31.9,0,0,0,1
2021-09-28 17:47:00,40.76651,-111.84753,1523.7,63,70,,0.4,24.0,23.0,,5.0,,,24.0,30.5,0,0,0,1
2021-09-28 17:48:00,40.76651,-111.84747,1529.7,63,71,,0.2,24.0,23.1,,5.0,,,24.0,31.3,0,0,0,1
2021-09-28 17:48:00,40.76666,-111.84762,1522.9,63,70,,1.4,24.0,23.0,,5.0,,,24.0,32.8,0,0,0,0
2021-09-28 17:49:00,40.76624,-111.84744,1513.7,63,71,,0.4,24.0,22.9,,5.0,,,24.0,30.0,0,0,0,1
2021-09-28 17:49:00,40.7666,-111.84759,1519.3,63,70,,1.1,24.0,23.0,,5.0,,,24.0,30.7,0,0,0,0
2021-09-28 17:50:00,40.76625,-111.84748,1507.9,63,71,,0.0,24.0,22.9,,5.0,,,24.0,32.1,0,0,0,1
2021-09-28 17:50:00,40.76636,-111.84757,1501.2,63,70,,0.6,24.0,22.8,,5.0,,,24.0,31.4,0,0,0,1
2021-09-28 17:51:00,40.76653,-111.84766,1491.9,63,70,,0.4,24.0,22.7,,5.0,,,24.0,31.4,0,0,0,1
2021-09-28 17:52:00,40.76649,-111.84767,1487.3,63,70,,0.3,24.0,22.6,,5.0,,,23.0,31.6,0,0,0,1
2021-09-28 17:53:00,40.76651,-111.84765,1484.8,63,70,,0.5,24.0,22.6,,5.0,,,23.0,30.7,0,0,0,1
2021-09-28 17:54:00,40.7666,-111.84765,1484.2,63,70,,0.5,24.0,22.7,,5.0,,,23.0,29.7,0,0,0,1
2021-09-28 17:55:00,40.7664,-111.8478,1483.5,63,70,,0.2,24.0,22.7,,5.0,,,23.0,30.8,0,0,0,1
2021-09-28 17:56:00,40.76639,-111.84779,1483.4,63,70,,0.1,24.1,22.7,,5.0,,,23.0,30.8,0,0,0,1
2021-09-28 17:57:00,40.76634,-111.84778,1483.4,63,70,,0.2,24.1,22.8,,5.0,,,23.0,30.0,0,0,0,1
2021-09-28 17:58:00,40.76616,-111.84771,1480.0,63,70,,0.4,24.1,22.8,,5.0,,,23.0,28.8,0,0,0,1
2021-09-28 17:59:00,40.76634,-111.84777,1478.6,63,70,,0.2,24.1,23.0,,5.0,,,23.0,29.9,0,0,0,1
2021-09-28 18:00:00,40.76621,-111.84779,1478.6,63,70,,0.8,24.2,23.2,,5.0,,,23.0,29.0,0,0,0,1
2021-09-28 18:01:00,40.76621,-111.84782,1479.1,63,70,,1.2,24.2,23.2,,5.0,,,24.0,29.4,0,0,0,0
2021-09-28 18:02:00,40.76652,-111.84763,1479.7,63,70,,0.4,24.2,23.3,,5.0,,,24.0,28.2,0,0,0,1
2021-09-28 18:03:00,40.76634,-111.84761,1480.2,63,70,,0.6,24.2,23.4,,5.0,,,24.0,29.5,0,0,0,1
2021-09-28 18:04:00,40.76633,-111.84755,1480.0,63,70,,0.1,24.2,23.5,,5.0,,,24.0,27.5,0,0,0,1
2021-09-28 18:04:00,40.76633,-111.84739,1479.8,63,71,,0.4,24.2,23.6,,5.0,,,24.0,29.4,0,0,0,1
2021-09-28 18:05:00,40.76651,-111.84755,1479.1,63,70,,0.5,24.2,23.7,,5.0,,,24.0,29.6,0,0,0,1
2021-09-28 18:05:00,40.76643,-111.84747,1479.3,63,71,,0.7,24.2,23.6,,5.0,,,24.0,29.8,0,0,0,1
2021-09-28 18:06:00,40.76649,-111.84769,1478.8,63,70,,0.5,24.2,23.7,,5.0,,,24.0,29.4,0,0,0,1
2021-09-28 18:07:00,40.76629,-111.84773,1476.6,63,70,,0.3,24.1,23.6,,5.0,,,24.0,29.6,0,0,0,1
2021-09-28 18:08:00,40.76633,-111.84771,1475.2,63,70,,0.8,24.2,23.5,,5.0,,,24.0,29.8,0,0,0,1
2021-09-28 18:09:00,40.76695,-111.84788,1472.5,63,70,,1.5,24.1,23.4,,5.0,,,24.0,30.4,0,0,0,0
2021-09-28 18:10:00,40.76692,-111.84784,1474.5,63,70,,0.8,24.1,23.2,,5.0,,,23.0,31.0,0,0,0,1
2021-09-28 18:11:00,40.76643,-111.84757,1475.0,63,70,,0.9,24.1,22.9,,5.0,,,23.0,30.1,0,0,0,1
2021-09-28 18:12:00,40.76627,-111.84753,1474.8,63,70,,0.6,24.1,22.9,,5.0,,,23.0,29.9,0,0,0,1
2021-09-28 18:12:00,40.76608,-111.8475,1474.6,63,71,,2.0,24.2,22.9,,5.0,,,23.0,31.2,0,0,0,0
2021-09-28 18:13:00,40.76615,-111.84777,1472.8,63,70,,1.1,24.1,22.9,,5.0,,,23.0,31.1,0,0,0,0
2021-09-28 18:14:00,40.76621,-111.84765,1471.3,63,70,,1.3,24.1,22.8,,4.0,,,23.0,32.5,0,0,0,0
2021-09-28 18:14:00,40.76617,-111.84747,1471.5,63,71,,0.5,24.1,22.9,,,,,,31.4,0,0,0,1
2021-09-28 18:15:00,40.76626,-111.8474,1468.7,63,71,,0.7,24.1,22.5,,5.0,,,23.0,31.1,0,0,0,1
2021-09-28 18:15:00,40.76621,-111.84766,1469.0,63,70,,1.0,24.1,22.6,,5.0,,,23.0,31.6,0,0,0,0
2021-09-28 18:16:00,40.76637,-111.84771,1469.7,63,70,,0.5,24.1,22.3,,5.0,,,23.0,32.0,0,0,0,1
2021-09-28 18:17:00,40.7663,-111.84777,1470.6,63,70,,0.2,24.1,22.2,,5.0,,,23.0,31.0,0,0,0,1
2021-09-28 18:18:00,40.76618,-111.84762,1471.8,63,70,,0.6,24.1,22.1,,5.0,,,23.0,30.8,0,0,0,1
2021-09-28 18:19:00,40.76624,-111.84765,1473.5,63,70,,0.3,24.1,22.1,,5.0,,,23.0,31.4,0,0,0,1
2021-09-28 18:20:00,40.76627,-111.84759,1475.1,63,70,,0.3,24.1,22.1,,5.0,,,23.0,30.9,0,0,0,1
2021-09-28 18:21:00,40.76622,-111.84757,1476.6,63,70,,0.7,24.1,22.1,,5.0,,,22.0,32.0,0,0,0,1
2021-09-28 18:21:00,40.76609,-111.84749,1476.5,63,71,,0.6,24.1,22.1,,5.0,,,22.0,30.8,0,0,0,1
2021-09-28 18:22:00,40.76632,-111.84763,1475.9,63,70,,0.3,24.1,22.1,,5.0,,,22.0,31.6,0,0,0,1
2021-09-28 18:23:00,40.76643,-111.84755,1476.3,63,70,,0.3,24.1,22.0,,5.0,,,22.0,29.2,0,0,0,1
2021-09-28 18:23:00,40.76643,-111.84746,1476.6,63,71,,0.3,24.1,22.1,,5.0,,,22.0,31.7,0,0,0,1
2021-09-28 18:24:00,40.76641,-111.84758,1475.2,63,70,,0.4,24.1,22.0,,5.0,,,22.0,31.1,0,0,0,1
2021-09-28 18:25:00,40.76633,-111.84761,1473.8,63,70,,0.3,24.1,22.0,,5.0,,,22.0,31.4,0,0,0,1
2021-09-28 18:26:00,40.76633,-111.84768,1473.7,63,70,,0.3,24.1,22.1,,5.0,,,22.0,30.4,0,0,0,1
2021-09-28 18:27:00,40.76644,-111.84756,1473.7,63,70,,1.2,24.2,22.1,,5.0,,,22.0,31.0,0,0,0,0
2021-09-28 18:28:00,40.7662,-111.8478,1473.3,63,70,,0.3,24.1,22.4,,5.0,,,22.0,29.1,0,0,0,1
2021-09-28 18:29:00,40.76625,-111.84778,1473.2,63,70,,0.2,24.2,22.7,,5.0,,,23.0,29.9,0,0,0,1
2021-09-28 18:30:00,40.76616,-111.84778,1473.1,63,70,,0.2,24.2,22.8,,5.0,,,23.0,28.7,0,0,0,1
2021-09-28 18:31:00,40.76656,-111.84756,1475.3,63,70,,1.0,24.2,23.5,,4.0,,,23.0,26.7,0,0,0,1
2021-09-28 18:31:00,40.76653,-111.84748,1476.2,63,71,,0.8,24.2,23.5,,4.0,,,23.0,26.9,0,0,0,1
2021-09-28 18:32:00,40.76651,-111.84747,1477.3,63,71,,0.2,24.2,23.5,,5.0,,,23.0,28.7,0,0,0,1
2021-09-28 18:32:00,40.76641,-111.84757,1478.5,63,70,,0.3,24.2,23.6,,5.0,,,23.0,27.2,0,0,0,1
2021-09-28 18:33:00,40.76636,-111.8478,1478.5,63,70,,0.2,24.2,23.7,,5.0,,,23.0,27.4,0,0,0,1
2021-09-28 18:34:00,40.76613,-111.84759,1478.5,63,70,,0.8,24.2,23.8,,4.0,,,23.0,25.8,0,0,0,1
2021-09-28 18:35:00,40.76605,-111.8477,1478.8,63,70,,2.3,24.2,23.9,,5.0,,,23.0,24.2,0,0,0,0
2021-09-28 18:36:00,40.76615,-111.84772,1481.8,63,70,,1.2,24.2,23.9,,4.0,,,23.0,25.4,0,0,0,0
2021-09-28 18:37:00,40.76638,-111.84768,1478.5,63,70,,0.3,24.2,23.9,,4.0,,,23.0,25.4,0,0,0,1
2021-09-28 18:38:00,40.76637,-111.84767,1479.5,63,70,,0.2,24.2,24.1,,5.0,,,23.0,24.9,0,0,0,1
2021-09-28 18:39:00,40.76628,-111.84764,1479.0,63,70,,0.2,24.2,24.1,,4.0,,,23.0,25.3,0,0,0,1
2021-09-28 18:40:00,40.76604,-111.84793,1476.2,63,70,,1.2,24.3,24.1,,4.0,,,23.0,25.5,0,0,0,0
2021-09-28 18:41:00,40.76622,-111.84779,1475.4,63,70,,1.1,24.3,24.2,,5.0,,,23.0,24.7,0,0,0,0
2021-09-28 18:42:00,40.76619,-111.84776,1474.7,63,70,,0.7,24.3,24.5,,4.0,,,24.0,25.5,0,0,0,1
2021-09-28 18:43:00,40.76634,-111.84765,1473.9,63,70,,0.3,24.3,24.5,,5.0,,,24.0,24.7,0,0,0,1
2021-09-28 18:44:00,40.7664,-111.84759,1472.9,63,70,,0.2,24.2,24.5,,4.0,,,24.0,26.0,0,0,0,1
2021-09-28 18:45:00,40.76641,-111.84769,1472.1,63,70,,1.0,24.3,24.5,,4.5,,,24.0,25.6,0,0,0,0
2021-09-28 18:46:00,40.76619,-111.84775,1469.8,63,70,,0.4,24.2,24.5,,5.0,,,24.0,26.8,0,0,0,1
2021-09-28 18:47:00,40.76616,-111.84779,1469.5,63,70,,0.2,24.2,24.6,,5.0,,,24.0,26.1,0,0,0,1
2021-09-28 18:48:00,40.76621,-111.84779,1469.4,63,70,,0.2,24.2,24.7,,4.0,,,24.0,25.0,0,0,0,1
2021-09-28 18:49:00,40.7662,-111.84774,1469.4,63,70,,0.1,24.2,24.7,,5.0,,,24.0,25.8,0,0,0,1
2021-09-28 18:50:00,40.7663,-111.8477,1469.8,63,70,,0.4,24.2,24.8,,5.0,,,24.0,25.9,0,0,0,1
2021-09-28 18:51:00,40.76625,-111.84755,1470.0,63,70,,0.1,24.2,24.9,,5.0,,,24.0,25.7,0,0,0,1
2021-09-28 18:52:00,40.76625,-111.84755,1470.1,63,70,,0.1,24.2,25.0,,5.0,,,24.0,25.2,0,0,0,1
2021-09-28 18:53:00,40.76629,-111.84765,1470.2,63,70,,0.2,24.2,25.2,,5.0,,,24.0,26.5,0,0,0,1
2021-09-28 18:54:00,40.76628,-111.84774,1470.3,63,70,,0.2,24.2,25.2,,4.0,,,24.0,25.9,0,0,0,1
2021-09-28 18:55:00,40.76625,-111.84773,1470.1,63,70,,0.1,24.2,25.3,,5.0,,,24.0,27.2,0,0,0,1
2021-09-28 18:56:00,40.76624,-111.8477,1470.2,63,70,,0.1,24.2,25.2,,5.0,,,24.0,26.5,0,0,0,1
2021-09-28 18:57:00,40.76624,-111.84768,1470.3,63,70,,0.1,24.2,25.2,,4.5,,,24.0,28.2,0,0,0,1
2021-09-28 18:58:00,40.76618,-111.84763,1470.3,63,70,,0.2,24.2,25.1,,5.0,,,24.0,26.4,0,0,0,1
2021-09-28 18:59:00,40.76624,-111.8476,1470.2,63,70,,0.3,24.2,25.1,,4.0,,,24.0,26.5,0,0,0,1
2021-09-28 19:00:00,40.76633,-111.84768,1470.5,63,70,,0.2,24.2,25.1,,5.0,,,24.0,27.7,0,0,0,1
2021-09-28 19:01:00,40.76623,-111.84766,1470.6,63,70,,0.4,24.2,25.2,,4.0,,,24.0,27.1,0,0,0,1
2021-09-28 19:02:00,40.76623,-111.84759,1470.4,63,70,,0.4,24.2,25.3,,5.0,,,24.0,28.3,0,0,0,1
2021-09-28 19:02:00,40.76621,-111.84748,1470.5,63,71,,0.1,24.2,25.3,,4.0,,,24.0,26.3,0,0,0,1
2021-09-28 19:03:00,40.76624,-111.84747,1470.5,63,71,,0.2,24.1,25.3,,4.0,,,24.0,27.2,0,0,0,1
2021-09-28 19:03:00,40.76625,-111.84756,1470.6,63,70,,0.3,24.1,25.3,,4.0,,,24.0,26.8,0,0,0,1
2021-09-28 19:04:00,40.76616,-111.84762,1469.5,63,70,,0.2,24.2,25.3,,4.0,,,24.0,26.3,0,0,0,1
2021-09-28 19:05:00,40.76615,-111.84776,1469.2,63,70,,0.3,24.1,25.3,,4.0,,,24.0,26.6,0,0,0,1
2021-09-28 19:06:00,40.76617,-111.84785,1468.0,63,70,,0.1,24.1,25.3,,4.0,,,24.0,26.1,0,0,0,1
2021-09-28 19:07:00,40.7662,-111.84787,1468.2,63,70,,0.2,24.1,25.3,,4.0,,,24.0,26.0,0,0,0,1
2021-09-28 19:08:00,40.76624,-111.84776,1468.4,63,70,,0.2,24.1,25.2,,3.5,,,24.0,26.4,0,0,0,1
2021-09-28 19:09:00,40.76621,-111.84756,1468.7,63,70,,0.2,24.1,25.2,,4.0,,,24.0,25.7,0,0,0,1
2021-09-28 19:10:00,40.76619,-111.84757,1468.8,63,70,,0.1,24.0,25.6,,4.0,,,24.0,24.9,0,0,0,1
2021-09-28 19:11:00,40.76622,-111.84762,1468.9,63,70,,0.1,24.0,25.8,,3.0,,,24.0,25.4,0,0,0,1
2021-09-28 19:12:00,40.7662,-111.84766,1469.0,63,70,,0.1,24.0,26.0,,4.0,,,24.0,25.1,0,0,0,1
2021-09-28 19:13:00,40.76627,-111.84767,1469.2,63,70,,0.2,24.0,26.1,,3.0,,,24.0,25.6,0,0,0,1
2021-09-28 19:14:00,40.76635,-111.84771,1470.5,63,70,,0.4,24.0,25.8,,3.0,,,24.0,25.5,0,0,0,1
2021-09-28 19:15:00,40.7663,-111.84765,1471.4,63,70,,0.2,24.0,25.8,,,,,,25.6,0,0,0,1
2021-09-28 19:16:00,40.7662,-111.84743,1470.3,63,71,,0.9,24.0,25.8,,3.0,,,24.0,26.5,0,0,0,1
2021-09-28 19:16:00,40.76633,-111.8476,1471.3,63,70,,0.2,24.0,25.8,,3.0,,,24.0,25.5,0,0,0,1
2021-09-28 19:17:00,40.76615,-111.84743,1469.9,63,71,,1.2,24.0,25.8,,3.5,,,24.0,24.1,0,0,0,0
2021-09-28 19:17:00,40.76651,-111.84764,1469.2,63,70,,1.9,24.0,25.7,,3.0,,,24.0,26.1,0,0,0,0
2021-09-28 19:18:00,40.76616,-111.84769,1468.8,63,70,,0.6,24.0,25.6,,3.0,,,24.0,26.4,0,0,0,1
2021-09-28 19:19:00,40.76635,-111.84774,1470.2,63,70,,0.4,24.0,25.5,,3.0,,,24.0,26.2,0,0,0,1
2021-09-28 19:20:00,40.76642,-111.84783,1472.3,63,70,,0.5,24.0,25.4,,2.5,,,24.0,26.2,0,0,0,1
2021-09-28 19:21:00,40.76595,-111.84729,1471.7,63,71,,1.0,24.0,25.3,,3.0,,,24.0,26.4,0,0,0,0
2021-09-28 19:22:00,40.76607,-111.84742,1472.0,63,71,,1.3,24.0,25.3,,3.0,,,24.0,27.6,0,0,0,0
2021-09-28 19:22:00,40.76625,-111.8476,1472.0,63,70,,0.5,24.0,25.3,,3.0,,,24.0,26.3,0,0,0,1
2021-09-28 19:23:00,40.76627,-111.84766,1472.1,63,70,,0.2,24.0,25.4,,2.5,,,24.0,27.1,0,0,0,1
2021-09-28 19:24:00,40.76633,-111.84778,1472.2,63,70,,0.7,24.0,25.4,,3.0,,,24.0,25.8,0,0,0,1
2021-09-28 19:25:00,40.76648,-111.84741,1473.6,63,71,,0.6,24.0,25.4,,2.0,,,24.0,26.4,0,0,0,1
2021-09-28 19:25:00,40.76641,-111.8477,1473.2,63,70,,0.4,24.0,25.4,,3.0,,,24.0,26.4,0,0,0,1
2021-09-28 19:26:00,40.76644,-111.84791,1472.8,63,70,,0.7,24.0,25.3,,3.0,,,24.0,27.0,0,0,0,1
2021-09-28 19:27:00,40.76644,-111.84789,1471.8,63,70,,0.3,24.0,25.2,,3.0,,,24.0,27.4,0,0,0,1
2021-09-28 19:28:00,40.76628,-111.84786,1471.6,63,70,,0.6,24.0,25.1,,3.0,,,24.0,26.6,0,0,0,1
2021-09-28 19:29:00,40.76608,-111.84756,1469.9,63,70,,0.4,24.0,25.1,,2.5,,,24.0,28.2,0,0,0,1
2021-09-28 19:30:00,40.76618,-111.84762,1468.2,63,70,,0.2,24.0,25.0,,3.0,,,24.0,27.7,0,0,0,1
2021-09-28 19:31:00,40.76624,-111.84765,1465.9,63,70,,0.2,23.9,24.9,,2.0,,,23.0,27.6,0,0,0,1
2021-09-28 19:32:00,40.76616,-111.8476,1463.8,63,70,,0.2,23.9,24.8,,2.5,,,23.0,28.2,0,0,0,1
2021-09-28 19:33:00,40.76612,-111.84755,1463.7,63,70,,0.3,23.9,24.7,,2.5,,,23.0,27.8,0,0,0,1
2021-09-28 19:33:00,40.76609,-111.84749,1463.1,63,71,,0.3,23.9,24.8,,2.0,,,23.0,28.8,0,0,0,1
2021-09-28 19:34:00,40.76657,-111.84777,1462.8,63,70,,0.8,23.9,24.8,,3.0,,,23.0,28.4,0,0,0,0
2021-09-28 19:35:00,40.76644,-111.84785,1463.2,63,70,,0.5,23.9,24.9,,3.0,,,23.0,27.6,0,0,0,1
2021-09-28 19:36:00,40.76616,-111.84772,1462.2,63,70,,0.6,23.9,24.9,,3.0,,,23.0,28.4,0,0,0,1
2021-09-28 19:37:00,40.76624,-111.84777,1461.9,63,70,,0.5,23.9,25.0,,3.0,,,23.0,26.5,0,0,0,1
2021-09-28 19:38:00,40.76613,-111.84766,1462.1,63,70,,0.3,23.9,25.1,,3.0,,,23.0,27.1,0,0,0,1
2021-09-28 19:39:00,40.76625,-111.84769,1461.6,63,70,,0.2,23.9,25.2,,3.0,,,23.0,27.1,0,0,0,1
2021-09-28 19:40:00,40.76617,-111.84762,1462.3,63,70,,0.2,23.9,25.2,,3.0,,,23.0,27.1,0,0,0,1
2021-09-28 19:41:00,40.76638,-111.84774,1462.3,63,70,,0.5,23.9,25.3,,3.0,,,23.0,27.2,0,0,0,1
2021-09-28 19:42:00,40.76637,-111.84777,1462.2,63,70,,0.2,23.8,25.5,,3.0,,,24.0,27.2,0,0,0,1
2021-09-28 19:43:00,40.76642,-111.84778,1462.2,63,70,,0.2,23.9,25.7,,3.0,,,24.0,27.8,0,0,0,1
2021-09-28 19:44:00,40.76632,-111.84773,1461.8,63,70,,0.3,23.8,25.8,,3.0,,,24.0,28.1,0,0,0,1
2021-09-28 19:45:00,40.76631,-111.84771,1461.3,63,70,,0.2,23.8,25.9,,3.0,,,24.0,28.9,0,0,0,1
2021-09-28 19:46:00,40.76621,-111.84762,1460.0,63,70,,0.5,23.8,25.9,,3.0,,,24.0,28.0,0,0,0,1
2021-09-28 19:47:00,40.7663,-111.84777,1458.8,63,70,,0.2,23.8,25.7,,3.0,,,24.0,28.3,0,0,0,1
2021-09-28 19:48:00,40.76631,-111.84777,1458.8,63,70,,0.3,23.8,25.5,,3.0,,,24.0,28.3,0,0,0,1
2021-09-28 19:49:00,40.76622,-111.84772,1458.2,63,70,,0.3,23.8,25.3,,3.0,,,24.0,28.5,0,0,0,1
2021-09-28 19:50:00,40.76616,-111.84763,1457.9,63,70,,0.2,23.8,25.2,,3.0,,,24.0,28.9,0,0,0,1
2021-09-28 19:51:00,40.76615,-111.84765,1458.2,63,70,,0.3,23.8,25.1,,3.0,,,23.0,28.9,0,0,0,1
2021-09-28 19:52:00,40.76622,-111.84772,1458.6,63,70,,0.3,23.8,24.9,,3.0,,,23.0,28.1,0,0,0,1
2021-09-28 19:53:00,40.76634,-111.84778,1456.2,63,70,,0.4,23.8,24.8,,3.0,,,23.0,29.2,0,0,0,1
2021-09-28 19:54:00,40.76654,-111.84776,1456.7,63,70,,0.6,23.8,24.7,,3.0,,,23.0,27.6,0,0,0,1
2021-09-28 19:55:00,40.76662,-111.84779,1456.2,63,70,,0.4,23.8,24.6,,3.0,,,23.0,28.1,0,0,0,1
2021-09-28 19:56:00,40.76658,-111.84775,1456.8,63,70,,0.5,23.9,24.4,,3.0,,,23.0,28.0,0,0,0,1
2021-09-28 19:57:00,40.7666,-111.84782,1456.8,63,70,,0.6,23.8,24.2,,2.5,,,23.0,28.6,0,0,0,1
2021-09-28 19:58:00,40.76619,-111.84767,1457.7,63,70,,1.1,23.8,24.2,,3.0,,,23.0,28.1,0,0,0,0
2021-09-28 19:58:00,40.76592,-111.84747,1458.8,63,71,,0.4,23.8,24.2,,3.0,,,23.0,26.7,0,0,0,1
2021-09-28 19:59:00,40.76609,-111.84768,1459.2,63,70,,0.6,23.8,24.1,,3.0,,,23.0,28.1,0,0,0,1
2021-09-28 19:59:00,40.76599,-111.84743,1459.0,63,71,,0.3,23.8,24.1,,2.5,,,23.0,28.4,0,0,0,1
2021-09-28 20:00:00,40.76636,-111.84775,1460.3,63,70,,0.5,23.8,24.0,,2.5,,,23.0,28.4,0,0,0,1
2021-09-28 20:01:00,40.76635,-111.84766,1461.6,63,70,,0.1,23.8,24.0,,3.0,,,23.0,26.4,0,0,0,1
2021-09-28 20:02:00,40.76636,-111.8476,1461.6,63,70,,0.2,23.8,23.9,,3.0,,,23.0,28.2,0,0,0,1
2021-09-28 20:03:00,40.7661,-111.84767,1461.2,63,70,,0.4,23.8,23.9,,2.0,,,23.0,29.6,0,0,0,1
2021-09-28 20:04:00,40.7661,-111.84761,1462.3,63,70,,0.3,23.8,23.7,,3.0,,,23.0,28.8,0,0,0,1
2021-09-28 20:05:00,40.76621,-111.8478,1462.8,63,70,,0.7,23.8,23.7,,2.0,,,23.0,28.8,0,0,0,1
2021-09-28 20:06:00,40.76643,-111.84766,1461.6,63,70,,0.5,23.8,23.7,,3.0,,,22.0,29.0,0,0,0,1
2021-09-28 20:07:00,40.76631,-111.8476,1461.7,63,70,,0.2,23.8,23.8,,2.0,,,22.0,29.6,0,0,0,1
2021-09-28 20:08:00,40.76637,-111.84759,1461.9,63,70,,0.2,23.8,23.8,,2.5,,,23.0,29.4,0,0,0,1
2021-09-28 20:09:00,40.76635,-111.84767,1462.3,63,70,,0.3,23.8,23.9,,2.0,,,23.0,28.8,0,0,0,1
2021-09-28 20:10:00,40.76644,-111.84766,1463.8,63,70,,0.4,23.8,24.1,,2.0,,,23.0,28.9,0,0,0,1
2021-09-28 20:11:00,40.76639,-111.84768,1464.2,63,70,,0.2,23.8,24.2,,2.5,,,23.0,29.6,0,0,0,1
2021-09-28 20:12:00,40.76622,-111.84768,1463.7,63,70,,0.5,23.8,24.2,,2.0,,,23.0,29.9,0,0,0,1
2021-09-28 20:13:00,40.7662,-111.84771,1462.9,63,70,,0.1,23.8,24.3,,2.0,,,23.0,28.3,0,0,0,1
2021-09-28 20:14:00,40.76627,-111.84773,1462.8,63,70,,0.2,23.8,24.2,,2.0,,,23.0,29.5,0,0,0,1
2021-09-28 20:15:00,40.7663,-111.84766,1463.1,63,70,,0.4,23.8,24.2,,2.0,,,23.0,29.4,0,0,0,1
2021-09-28 20:16:00,40.76666,-111.84771,1464.5,63,70,,0.9,23.8,24.1,,2.0,,,23.0,28.6,0,0,0,0
2021-09-28 20:17:00,40.76621,-111.84768,1465.8,63,70,,0.5,23.8,24.1,,3.0,,,23.0,29.8,0,0,0,1
2021-09-28 20:18:00,40.7662,-111.84764,1466.1,63,70,,0.5,23.8,24.1,,3.0,,,23.0,30.1,0,0,0,1
2021-09-28 20:18:00,40.76634,-111.84748,1466.1,63,71,,0.4,23.8,24.0,,3.0,,,23.0,29.7,0,0,0,1
2021-09-28 20:19:00,40.76633,-111.84746,1466.3,63,71,,0.1,23.8,23.9,,3.0,,,23.0,28.7,0,0,0,1
2021-09-28 20:19:00,40.76638,-111.84768,1465.2,63,70,,1.0,23.8,23.9,,2.0,,,23.0,30.2,0,0,0,0
2021-09-28 20:20:00,40.76618,-111.8477,1463.8,63,70,,1.1,23.8,23.8,,2.5,,,23.0,29.4,0,0,0,0
2021-09-28 20:21:00,40.76605,-111.84766,1465.2,63,70,,0.3,23.8,23.8,,3.0,,,22.5,29.4,0,0,0,1
2021-09-28 20:22:00,40.76616,-111.84779,1467.2,63,70,,0.9,23.8,23.7,,3.0,,,22.0,30.4,0,0,0,1
2021-09-28 20:23:00,40.76638,-111.84749,1467.7,63,71,,1.1,23.7,23.5,,2.0,,,22.0,30.0,0,0,0,0
2021-09-28 20:23:00,40.76601,-111.84759,1466.9,63,70,,0.8,23.8,23.6,,2.5,,,22.0,30.5,0,0,0,1
2021-09-28 20:24:00,40.76629,-111.84748,1468.2,63,71,,1.1,23.8,23.5,,2.5,,,22.0,31.2,0,0,0,0
2021-09-28 20:24:00,40.76622,-111.84755,1468.5,63,70,,0.5,23.8,23.4,,3.0,,,22.0,30.8,0,0,0,1
2021-09-28 20:25:00,40.76513,-111.84738,1470.6,63,71,,2.3,23.8,23.3,,3.0,,,22.0,30.8,0,0,0,0
2021-09-28 20:25:00,40.76564,-111.84753,1469.7,63,70,,1.4,23.8,23.4,,2.0,,,22.0,31.1,0,0,0,0
2021-09-28 20:29:00,40.76642,-111.84777,1471.2,63,70,,0.4,23.7,23.3,,3.0,,,22.0,30.0,0,0,0,1
2021-09-28 20:30:00,40.76629,-111.84779,1470.8,63,70,,0.5,23.7,23.2,,2.0,,,22.0,32.2,0,0,0,1
2021-09-28 20:31:00,40.76607,-111.84784,1469.3,63,70,,0.3,23.7,23.2,,2.0,,,22.0,31.2,0,0,0,1